Showing default

ICEYE-X26, 56961

Orbit data source: Space-Track

ICEYE-X26, 56961 is a payload satellite owned by ICEYE US (US) in SSO that was launched on Mon, 12 Jun 2023 UTC via an FALCON 9 launch vehicle from the Air Force Western Test Range (AFWTR). Payload-class satellites include a variety of spacecraft equipped with specific instruments for various scientific and technological missions. These include communications satellites like Starlink; space stations such as the ISS; scientific satellites like the Hubble; Earth observation satellites from companies like Planet Labs, Umbra, and HawkEye 360; GPS; miniature CubeSats for education and research; and military/defense satellites.

Loading next visibility...
Identifier
56961, 2023-084AF
Orbit
SSO
Country
Flag of USUS
Related business
Manufacturer
ICEYE
Mission
Operational Commercial Radar Imaging
Bus & Motor
ICEYE, Unknown motor
Mass
90 kg wet, 89 kg dry
Launch date (UTC)
2023-06-12 (2 years ago)
Launch vehicle
FALCON 9
Launch site
Air Force Western Test Range (AFWTR)
Object type
Payload
Rocket body
Debris
Shape & HBR
Box + 1 Pan, 1.6 m
Radar Cross Section
0.825 m², Medium (>0.1 m² and < 1m²)

Expand to show TLE details & history
Last TLE update: 11 hours ago

TLE from 11 hours ago
0 ICEYE-X26
1 56961U 23084AF  25307.99766918  .00040794  00000-0  50903-3 0  9990
2 56961  97.5724  89.0382 0000636  67.2000 292.9323 15.59777106133839
Epoch: 2025-11-03T23:56Z
TLE epoch observation values (Epoch: 2025-11-03T23:56:38.617Z)
Latitude
-0.00003°
Longitude
46.38629°
Altitude
391.273 km
Speed
7.676 km/s
True Right ascension
05h 56m 09s
True Declination
0° 00' 00"
Sunlit
Object was in full shadow at epoch
Visualization orbit readout
Latitude
Unknown
Longitude
Unknown
Altitude
Unknown
Speed
Unknown
Apparent Right ascension
Unknown
Apparent Declination
Unknown
Sunlit
N/A
Visualization observer readout
Local Sidereal Time
06:26:05
Azimuth
Unknown
Elevation
Unknown
Doppler factor
Unknown
Orbital elements
Apogee altitude
385.652 km
Perigee altitude
384.792 km
Semi-major axis
6,763.359 km
Eccentricity
0.00006
Inclination
97.5724°
RAAN
89.0382°
Arg. of periapsis
67.2°
True anomaly
292.92559°
Mean anomaly
292.9323°
Eccentric anomaly
292.92894°
Mean motion
3.90211 °/min
Orbital period
92.26 mins
BSTAR
0.00050903
Loading maneuver chart data...
Computing Atmospheric mass density...

Documentation

Showing up to 5 results
|